• Em Portugal
  • Lista de países
  • Para 7 dias
  • Temperatura da água
  • Mapas de satélite
  • Mapa do tempo
  • Widgets de tempo
  • user-avatar
    Iniciar Sessão

    Previsão horária em Bulgan

    Hoje, 23 Fevereiro, Sexta-feira

    Tempo Temperatura Precipitação Vento Pressão Humidade
    00:00 -17°C° 0 mm 1 m/s 621 mmHg 90%
    01:00 -17°C° 0 mm 1 m/s 621 mmHg 92%
    02:00 -18°C° 0 mm 1 m/s 621 mmHg 93%
    03:00 -18°C° 0 mm 1 m/s 622 mmHg 93%
    04:00 -19°C° 0 mm 1 m/s 622 mmHg 93%
    05:00 -19°C° 0 mm 1 m/s 623 mmHg 93%
    06:00 -19°C° 0 mm 1 m/s 623 mmHg 92%
    07:00 -19°C° 0 mm 1 m/s 623 mmHg 91%
    08:00 -18°C° 0 mm 1 m/s 624 mmHg 89%
    09:00 -17°C° 0 mm 1 m/s 624 mmHg 87%
    10:00 -18°C° 0 mm 2 m/s 625 mmHg 85%
    11:00 -16°C° 0 mm 2 m/s 625 mmHg 81%
    12:00 -15°C° 0 mm 2 m/s 625 mmHg 78%
    13:00 -11°C° 0 mm 1 m/s 625 mmHg 74%
    14:00 -11°C° 0 mm 1 m/s 625 mmHg 76%
    15:00 -11°C° 0 mm 1 m/s 625 mmHg 77%
    16:00 -11°C° 0 mm 1 m/s 625 mmHg 79%
    17:00 -12°C° 0 mm 1 m/s 625 mmHg 79%
    18:00 -13°C° 0 mm 1 m/s 625 mmHg 79%
    19:00 -15°C° 0 mm 1 m/s 625 mmHg 80%
    20:00 -15°C° 0 mm 1 m/s 625 mmHg 79%
    21:00 -15°C° 0 mm 1 m/s 625 mmHg 79%
    22:00 -15°C° 0 mm 1 m/s 625 mmHg 78%
    23:00 -15°C° 0 mm 1 m/s 625 mmHg 78%

    Amanhã, 24 Fevereiro, Sábado

    Tempo Temperatura Precipitação Vento Pressão Humidade
    00:00 -15°C° 0 mm 1 m/s 625 mmHg 77%
    01:00 -17°C° 0 mm 2 m/s 625 mmHg 77%
    02:00 -17°C° 0 mm 2 m/s 625 mmHg 77%
    03:00 -18°C° 0 mm 2 m/s 625 mmHg 76%
    04:00 -18°C° 0 mm 2 m/s 624 mmHg 76%
    05:00 -18°C° 0 mm 2 m/s 624 mmHg 75%
    06:00 -18°C° 0 mm 2 m/s 624 mmHg 75%
    07:00 -18°C° 0 mm 2 m/s 624 mmHg 75%
    08:00 -16°C° 0 mm 2 m/s 625 mmHg 74%
    09:00 -15°C° 0 mm 2 m/s 625 mmHg 73%
    10:00 -14°C° 0 mm 2 m/s 626 mmHg 73%
    11:00 -12°C° 0 mm 2 m/s 626 mmHg 70%
    12:00 -10°C° 0 mm 2 m/s 626 mmHg 66%
    13:00 -9°C° 0 mm 2 m/s 625 mmHg 63%
    14:00 -9°C° 0 mm 2 m/s 625 mmHg 65%
    15:00 -8°C° 0 mm 1 m/s 625 mmHg 68%
    16:00 -9°C° 0 mm 1 m/s 624 mmHg 70%
    17:00 -10°C° 0 mm 1 m/s 624 mmHg 70%
    18:00 -11°C° 0 mm 1 m/s 624 mmHg 71%
    19:00 -12°C° 0 mm 1 m/s 623 mmHg 71%
    20:00 -13°C° 0 mm 1 m/s 623 mmHg 70%
    21:00 -13°C° 0 mm 1 m/s 623 mmHg 70%
    22:00 -13°C° 0 mm 1 m/s 623 mmHg 70%
    23:00 -13°C° 0 mm 1 m/s 623 mmHg 69%

    Depois de amanhã, 25 Fevereiro, Domingo

    Tempo Temperatura Precipitação Vento Pressão Humidade
    00:00 -13°C° 0 mm 1 m/s 622 mmHg 69%
    01:00 -14°C° 0 mm 1 m/s 622 mmHg 69%
    02:00 -14°C° 0 mm 1 m/s 622 mmHg 69%
    03:00 -14°C° 0 mm 1 m/s 622 mmHg 69%
    04:00 -14°C° 0 mm 1 m/s 621 mmHg 69%
    05:00 -14°C° 0 mm 1 m/s 621 mmHg 70%
    06:00 -14°C° 0 mm 1 m/s 621 mmHg 71%
    07:00 -14°C° 0 mm 1 m/s 621 mmHg 71%
    08:00 -12°C° 0 mm 1 m/s 622 mmHg 71%
    09:00 -11°C° 0 mm 1 m/s 622 mmHg 70%
    10:00 -9°C° 0 mm 1 m/s 623 mmHg 69%
    11:00 -8°C° 0 mm 1 m/s 622 mmHg 66%
    12:00 -8°C° 0 mm 2 m/s 622 mmHg 64%
    13:00 -7°C° 0 mm 2 m/s 622 mmHg 61%
    14:00 -8°C° 0 mm 3 m/s 622 mmHg 63%
    15:00 -8°C° 0 mm 3 m/s 621 mmHg 65%
    16:00 -9°C° 0 mm 4 m/s 621 mmHg 67%
    17:00 -10°C° 0 mm 4 m/s 622 mmHg 67%
    18:00 -11°C° 0 mm 4 m/s 622 mmHg 67%
    19:00 -12°C° 0 mm 4 m/s 623 mmHg 67%
    20:00 -14°C° 0 mm 4 m/s 623 mmHg 68%
    21:00 -14°C° 0 mm 4 m/s 623 mmHg 69%
    22:00 -15°C° 0 mm 4 m/s 624 mmHg 69%
    23:00 -15°C° 0 mm 3 m/s 624 mmHg 69%

    26 Fevereiro, Segunda-feira

    Tempo Temperatura Precipitação Vento Pressão Humidade
    00:00 -16°C° 0 mm 3 m/s 624 mmHg 69%
    01:00 -16°C° 0 mm 3 m/s 624 mmHg 70%
    02:00 -17°C° 0 mm 3 m/s 624 mmHg 70%
    03:00 -16°C° 0 mm 2 m/s 625 mmHg 71%
    04:00 -17°C° 0 mm 2 m/s 625 mmHg 72%
    05:00 -17°C° 0 mm 2 m/s 625 mmHg 72%
    06:00 -17°C° 0 mm 2 m/s 625 mmHg 72%
    07:00 -15°C° 0 mm 1 m/s 625 mmHg 72%
    08:00 -14°C° 0 mm 1 m/s 626 mmHg 70%
    09:00 -13°C° 0 mm 1 m/s 626 mmHg 68%
    10:00 -12°C° 0 mm 1 m/s 627 mmHg 66%
    11:00 -11°C° 0 mm 1 m/s 627 mmHg 62%
    12:00 -10°C° 0 mm 1 m/s 626 mmHg 58%
    13:00 -10°C° 0 mm 2 m/s 626 mmHg 54%
    14:00 -12°C° 0 mm 2 m/s 626 mmHg 58%
    15:00 -12°C° 0 mm 2 m/s 625 mmHg 63%
    16:00 -12°C° 0 mm 2 m/s 625 mmHg 67%
    17:00 -11°C° 0 mm 1 m/s 625 mmHg 69%
    18:00 -13°C° 0 mm 1 m/s 625 mmHg 70%
    19:00 -14°C° 0 mm 1 m/s 625 mmHg 72%
    20:00 -14°C° 0 mm 1 m/s 625 mmHg 73%
    21:00 -14°C° 0 mm 1 m/s 625 mmHg 75%
    22:00 -14°C° 0 mm 1 m/s 625 mmHg 76%
    23:00 -14°C° 0 mm 1 m/s 624 mmHg 78%

    27 Fevereiro, Terça-feira

    Tempo Temperatura Precipitação Vento Pressão Humidade
    00:00 -15°C° 0 mm 1 m/s 624 mmHg 79%
    01:00 -15°C° 0 mm 1 m/s 624 mmHg 81%
    02:00 -15°C° 0 mm 1 m/s 623 mmHg 82%
    03:00 -16°C° 0 mm 1 m/s 623 mmHg 83%
    04:00 -16°C° 0 mm 1 m/s 623 mmHg 84%
    05:00 -17°C° 0 mm 1 m/s 623 mmHg 85%
    06:00 -17°C° 0 mm 0 m/s 623 mmHg 85%
    07:00 -17°C° 0 mm 0 m/s 622 mmHg 86%
    08:00 -16°C° 0 mm 0 m/s 623 mmHg 84%
    09:00 -15°C° 0 mm 1 m/s 623 mmHg 82%
    10:00 -13°C° 0 mm 1 m/s 623 mmHg 80%
    11:00 -13°C° 0,1 mm 1 m/s 623 mmHg 81%
    12:00 -13°C° 0,1 mm 1 m/s 622 mmHg 81%
    13:00 -12°C° 0,1 mm 1 m/s 622 mmHg 82%
    14:00 -13°C° 0,1 mm 1 m/s 621 mmHg 84%
    15:00 -15°C° 0,1 mm 2 m/s 621 mmHg 86%
    16:00 -15°C° 0,1 mm 2 m/s 621 mmHg 88%
    17:00 -16°C° 0,1 mm 2 m/s 621 mmHg 91%
    18:00 -17°C° 0,1 mm 2 m/s 621 mmHg 93%
    19:00 -18°C° 0,1 mm 2 m/s 621 mmHg 96%
    20:00 -18°C° 0,2 mm 2 m/s 621 mmHg 96%
    21:00 -17°C° 0,2 mm 1 m/s 621 mmHg 96%
    22:00 -17°C° 0,2 mm 1 m/s 621 mmHg 96%
    23:00 -18°C° 0,1 mm 1 m/s 621 mmHg 96%

    28 Fevereiro, Quarta-feira

    Tempo Temperatura Precipitação Vento Pressão Humidade
    00:00 -18°C° 0,1 mm 1 m/s 621 mmHg 96%
    01:00 -19°C° 0,1 mm 1 m/s 620 mmHg 96%
    02:00 -19°C° 0,1 mm 1 m/s 621 mmHg 96%
    03:00 -20°C° 0,1 mm 1 m/s 621 mmHg 95%
    04:00 -20°C° 0,1 mm 1 m/s 621 mmHg 95%
    05:00 -20°C° 0,1 mm 1 m/s 621 mmHg 95%
    06:00 -20°C° 0,1 mm 1 m/s 621 mmHg 95%
    07:00 -20°C° 0,1 mm 1 m/s 622 mmHg 95%
    08:00 -20°C° 0,1 mm 1 m/s 622 mmHg 92%
    09:00 -19°C° 0,1 mm 1 m/s 622 mmHg 89%
    10:00 -19°C° 0,1 mm 1 m/s 622 mmHg 85%
    11:00 -20°C° 0,1 mm 2 m/s 622 mmHg 82%
    12:00 -20°C° 0,1 mm 2 m/s 622 mmHg 80%
    13:00 -19°C° 0,1 mm 2 m/s 622 mmHg 77%
    14:00 -19°C° 0 mm 2 m/s 622 mmHg 79%
    15:00 -19°C° 0 mm 2 m/s 622 mmHg 80%
    16:00 -17°C° 0 mm 1 m/s 622 mmHg 82%
    17:00 -18°C° 0 mm 1 m/s 622 mmHg 85%
    18:00 -19°C° 0 mm 1 m/s 623 mmHg 87%
    19:00 -21°C° 0 mm 1 m/s 623 mmHg 90%
    20:00 -21°C° 0 mm 1 m/s 623 mmHg 89%
    21:00 -24°C° 0 mm 2 m/s 623 mmHg 89%
    22:00 -25°C° 0 mm 2 m/s 623 mmHg 88%
    23:00 -25°C° 0 mm 2 m/s 623 mmHg 87%
    Mostrar mais